Year,Month,Day,Hour,Minute,Value (Times are PST for temperature in C)
2008,06,30,00,00,22.10
2008,06,30,00,01,22.00
2008,06,30,00,02,22.00
2008,06,30,00,03,21.90
2008,06,30,00,04,21.90
2008,06,30,00,05,21.90
2008,06,30,00,06,21.80
2008,06,30,00,07,21.80
2008,06,30,00,08,21.80
2008,06,30,00,09,21.80
2008,06,30,00,10,21.80
2008,06,30,00,11,21.80
2008,06,30,00,12,21.80
2008,06,30,00,13,21.80
2008,06,30,00,14,21.80
2008,06,30,00,15,21.70
2008,06,30,00,16,21.60
2008,06,30,00,17,21.50
2008,06,30,00,18,21.40
2008,06,30,00,19,21.40
2008,06,30,00,20,21.30
2008,06,30,00,21,21.30
2008,06,30,00,22,21.20
2008,06,30,00,23,21.20
2008,06,30,00,24,21.20
2008,06,30,00,25,21.20
2008,06,30,00,26,21.10
2008,06,30,00,27,21.10
2008,06,30,00,28,21.00
2008,06,30,00,29,21.00
2008,06,30,00,30,20.90
2008,06,30,00,31,20.90
2008,06,30,00,32,20.80
2008,06,30,00,33,20.80
2008,06,30,00,34,20.80
2008,06,30,00,35,20.80
2008,06,30,00,36,20.80
2008,06,30,00,37,20.80
2008,06,30,00,38,20.80
2008,06,30,00,39,20.70
2008,06,30,00,40,20.70
2008,06,30,00,41,20.70
2008,06,30,00,42,20.70
2008,06,30,00,43,20.70
2008,06,30,00,44,20.70
2008,06,30,00,45,20.70
2008,06,30,00,46,20.60
2008,06,30,00,47,20.60
2008,06,30,00,48,20.50
2008,06,30,00,49,20.40
2008,06,30,00,50,20.30
2008,06,30,00,51,20.30
2008,06,30,00,52,20.20
2008,06,30,00,53,20.10
2008,06,30,00,54,20.00
2008,06,30,00,55,20.00
2008,06,30,00,56,20.00
2008,06,30,00,57,20.00
2008,06,30,00,58,20.00
2008,06,30,00,59,19.90
2008,06,30,01,00,19.80
2008,06,30,01,01,19.80
2008,06,30,01,02,19.70
2008,06,30,01,03,19.60
2008,06,30,01,04,19.50
2008,06,30,01,05,19.40
2008,06,30,01,06,19.40
2008,06,30,01,07,19.30
2008,06,30,01,08,19.30
2008,06,30,01,09,19.20
2008,06,30,01,10,19.20
2008,06,30,01,11,19.10
2008,06,30,01,12,19.10
2008,06,30,01,13,19.00
2008,06,30,01,14,18.90
2008,06,30,01,15,18.90
2008,06,30,01,16,18.80
2008,06,30,01,17,18.80
2008,06,30,01,18,18.80
2008,06,30,01,19,18.80
2008,06,30,01,20,18.70
2008,06,30,01,21,18.70
2008,06,30,01,22,18.60
2008,06,30,01,23,18.60
2008,06,30,01,24,18.60
2008,06,30,01,25,18.60
2008,06,30,01,26,18.50
2008,06,30,01,27,18.50
2008,06,30,01,28,18.50
2008,06,30,01,29,18.50
2008,06,30,01,30,18.40
2008,06,30,01,31,18.40
2008,06,30,01,32,18.40
2008,06,30,01,33,18.40
2008,06,30,01,34,18.40
2008,06,30,01,35,18.40
2008,06,30,01,36,18.40
2008,06,30,01,37,18.40
2008,06,30,01,38,18.40
2008,06,30,01,39,18.40
2008,06,30,01,40,18.40
2008,06,30,01,41,18.40
2008,06,30,01,42,18.40
2008,06,30,01,43,18.30
2008,06,30,01,44,18.30
2008,06,30,01,45,18.20
2008,06,30,01,46,18.20
2008,06,30,01,47,18.20
2008,06,30,01,48,18.10
2008,06,30,01,49,18.10
2008,06,30,01,50,18.10
2008,06,30,01,51,18.10
2008,06,30,01,52,18.00
2008,06,30,01,53,18.00
2008,06,30,01,54,18.00
2008,06,30,01,55,18.00
2008,06,30,01,56,17.90
2008,06,30,01,57,17.90
2008,06,30,01,58,17.90
2008,06,30,01,59,17.90
2008,06,30,02,00,17.90
2008,06,30,02,01,17.90
2008,06,30,02,02,17.90
2008,06,30,02,03,17.90
2008,06,30,02,04,17.80
2008,06,30,02,05,17.80
2008,06,30,02,06,17.80
2008,06,30,02,07,17.80
2008,06,30,02,08,17.80
2008,06,30,02,09,17.70
2008,06,30,02,10,17.70
2008,06,30,02,11,17.70
2008,06,30,02,12,17.60
2008,06,30,02,13,17.60
2008,06,30,02,14,17.50
2008,06,30,02,15,17.50
2008,06,30,02,16,17.40
2008,06,30,02,17,17.40
2008,06,30,02,18,17.40
2008,06,30,02,19,17.40
2008,06,30,02,20,17.30
2008,06,30,02,21,17.30
2008,06,30,02,22,17.30
2008,06,30,02,23,17.30
2008,06,30,02,24,17.30
2008,06,30,02,25,17.30
2008,06,30,02,26,17.30
2008,06,30,02,27,17.20
2008,06,30,02,28,17.20
2008,06,30,02,29,17.30
2008,06,30,02,30,17.30
2008,06,30,02,31,17.30
2008,06,30,02,32,17.30
2008,06,30,02,33,17.30
2008,06,30,02,34,17.40
2008,06,30,02,35,17.40
2008,06,30,02,36,17.40
2008,06,30,02,37,17.40
2008,06,30,02,38,17.40
2008,06,30,02,39,17.40
2008,06,30,02,40,17.40
2008,06,30,02,41,17.40
2008,06,30,02,42,17.40
2008,06,30,02,43,17.40
2008,06,30,02,44,17.40
2008,06,30,02,45,17.40
2008,06,30,02,46,17.30
2008,06,30,02,47,17.30
2008,06,30,02,48,17.30
2008,06,30,02,49,17.30
2008,06,30,02,50,17.30
2008,06,30,02,51,17.30
2008,06,30,02,52,17.30
2008,06,30,02,53,17.30
2008,06,30,02,54,17.30
2008,06,30,02,55,17.30
2008,06,30,02,56,17.30
2008,06,30,02,57,17.30
2008,06,30,02,58,17.30
2008,06,30,02,59,17.30
2008,06,30,03,00,17.30
2008,06,30,03,01,17.30
2008,06,30,03,02,17.30
2008,06,30,03,03,17.30
2008,06,30,03,04,17.30
2008,06,30,03,05,17.30
2008,06,30,03,06,17.30
2008,06,30,03,07,17.20
2008,06,30,03,08,17.20
2008,06,30,03,09,17.20
2008,06,30,03,10,17.20
2008,06,30,03,11,17.20
2008,06,30,03,12,17.20
2008,06,30,03,13,17.20
2008,06,30,03,14,17.20
2008,06,30,03,15,17.20
2008,06,30,03,16,17.20
2008,06,30,03,17,17.20
2008,06,30,03,18,17.10
2008,06,30,03,19,17.10
2008,06,30,03,20,17.10
2008,06,30,03,21,17.10
2008,06,30,03,22,17.00
2008,06,30,03,23,17.00
2008,06,30,03,24,17.00
2008,06,30,03,25,17.00
2008,06,30,03,26,16.90
2008,06,30,03,27,16.90
2008,06,30,03,28,16.90
2008,06,30,03,29,16.90
2008,06,30,03,30,16.90
2008,06,30,03,31,16.80
2008,06,30,03,32,16.80
2008,06,30,03,33,16.80
2008,06,30,03,34,16.80
2008,06,30,03,35,16.80
2008,06,30,03,36,16.80
2008,06,30,03,37,16.80
2008,06,30,03,38,16.80
2008,06,30,03,39,16.80
2008,06,30,03,40,16.80
2008,06,30,03,41,16.80
2008,06,30,03,42,16.80
2008,06,30,03,43,16.80
2008,06,30,03,44,16.80
2008,06,30,03,45,16.80
2008,06,30,03,46,16.80
2008,06,30,03,47,16.80
2008,06,30,03,48,16.80
2008,06,30,03,49,16.70
2008,06,30,03,50,16.70
2008,06,30,03,51,16.70
2008,06,30,03,52,16.70
2008,06,30,03,53,16.70
2008,06,30,03,54,16.70
2008,06,30,03,55,16.70
2008,06,30,03,56,16.70
2008,06,30,03,57,16.70
2008,06,30,03,58,16.70
2008,06,30,03,59,16.70
2008,06,30,04,00,16.70
2008,06,30,04,01,16.70
2008,06,30,04,02,16.70
2008,06,30,04,03,16.70
2008,06,30,04,04,16.70
2008,06,30,04,05,16.70
2008,06,30,04,06,16.70
2008,06,30,04,07,16.70
2008,06,30,04,08,16.70
2008,06,30,04,09,16.70
2008,06,30,04,10,16.70
2008,06,30,04,11,16.70
2008,06,30,04,12,16.60
2008,06,30,04,13,16.60
2008,06,30,04,14,16.60
2008,06,30,04,15,16.60
2008,06,30,04,16,16.60
2008,06,30,04,17,16.60
2008,06,30,04,18,16.50
2008,06,30,04,19,16.50
2008,06,30,04,20,16.50
2008,06,30,04,21,16.40
2008,06,30,04,22,16.40
2008,06,30,04,23,16.40
2008,06,30,04,24,16.40
2008,06,30,04,25,16.30
2008,06,30,04,26,16.30
2008,06,30,04,27,16.30
2008,06,30,04,28,16.30
2008,06,30,04,29,16.30
2008,06,30,04,30,16.30
2008,06,30,04,31,16.30
2008,06,30,04,32,16.30
2008,06,30,04,33,16.20
2008,06,30,04,34,16.20
2008,06,30,04,35,16.20
2008,06,30,04,36,16.20
2008,06,30,04,37,16.20
2008,06,30,04,38,16.20
2008,06,30,04,39,16.10
2008,06,30,04,40,16.10
2008,06,30,04,41,16.10
2008,06,30,04,42,16.00
2008,06,30,04,43,16.00
2008,06,30,04,44,16.00
2008,06,30,04,45,16.00
2008,06,30,04,46,16.00
2008,06,30,04,47,16.00
2008,06,30,04,48,16.00
2008,06,30,04,49,16.00
2008,06,30,04,50,16.00
2008,06,30,04,51,16.00
2008,06,30,04,52,16.00
2008,06,30,04,53,16.00
2008,06,30,04,54,16.00
2008,06,30,04,55,16.00
2008,06,30,04,56,16.00
2008,06,30,04,57,16.00
2008,06,30,04,58,16.00
2008,06,30,04,59,16.00
2008,06,30,05,00,16.00
2008,06,30,05,01,16.00
2008,06,30,05,02,16.00
2008,06,30,05,03,16.00
2008,06,30,05,04,16.00
2008,06,30,05,05,16.10
2008,06,30,05,06,16.10
2008,06,30,05,07,16.10
2008,06,30,05,08,16.10
2008,06,30,05,09,16.10
2008,06,30,05,10,16.10
2008,06,30,05,11,16.10
2008,06,30,05,12,16.10
2008,06,30,05,13,16.00
2008,06,30,05,14,16.00
2008,06,30,05,15,16.00
2008,06,30,05,16,16.00
2008,06,30,05,17,15.90
2008,06,30,05,18,15.90
2008,06,30,05,19,15.90
2008,06,30,05,20,15.90
2008,06,30,05,21,15.90
2008,06,30,05,22,15.80
2008,06,30,05,23,15.80
2008,06,30,05,24,15.80
2008,06,30,05,25,15.80
2008,06,30,05,26,15.80
2008,06,30,05,27,15.80
2008,06,30,05,28,15.70
2008,06,30,05,29,15.70
2008,06,30,05,30,15.70
2008,06,30,05,31,15.70
2008,06,30,05,32,15.70
2008,06,30,05,33,15.70
2008,06,30,05,34,15.70
2008,06,30,05,35,15.70
2008,06,30,05,36,15.70
2008,06,30,05,37,15.70
2008,06,30,05,38,15.70
2008,06,30,05,39,15.70
2008,06,30,05,40,15.70
2008,06,30,05,41,15.70
2008,06,30,05,42,15.70
2008,06,30,05,43,15.70
2008,06,30,05,44,15.70
2008,06,30,05,45,15.70
2008,06,30,05,46,15.70
2008,06,30,05,47,15.70
2008,06,30,05,48,15.70
2008,06,30,05,49,15.70
2008,06,30,05,50,15.70
2008,06,30,05,51,15.70
2008,06,30,05,52,15.70
2008,06,30,05,53,15.70
2008,06,30,05,54,15.70
2008,06,30,05,55,15.70
2008,06,30,05,56,15.70
2008,06,30,05,57,15.70
2008,06,30,05,58,15.70
2008,06,30,05,59,15.70
2008,06,30,06,00,15.70
2008,06,30,06,01,15.70
2008,06,30,06,02,15.80
2008,06,30,06,03,15.80
2008,06,30,06,04,15.80
2008,06,30,06,05,15.80
2008,06,30,06,06,15.80
2008,06,30,06,07,15.80
2008,06,30,06,08,15.80
2008,06,30,06,09,15.80
2008,06,30,06,10,15.80
2008,06,30,06,11,15.80
2008,06,30,06,12,15.80
2008,06,30,06,13,15.80
2008,06,30,06,14,15.80
2008,06,30,06,15,15.70
2008,06,30,06,16,15.80
2008,06,30,06,17,15.80
2008,06,30,06,18,15.70
2008,06,30,06,19,15.80
2008,06,30,06,20,15.70
2008,06,30,06,21,15.70
2008,06,30,06,22,15.70
2008,06,30,06,23,15.70
2008,06,30,06,24,15.70
2008,06,30,06,25,15.70
2008,06,30,06,26,15.70
2008,06,30,06,27,15.70
2008,06,30,06,28,15.70
2008,06,30,06,29,15.70
2008,06,30,06,30,15.70
2008,06,30,06,31,15.60
2008,06,30,06,32,15.60
2008,06,30,06,33,15.60
2008,06,30,06,34,15.60
2008,06,30,06,35,15.60
2008,06,30,06,36,15.60
2008,06,30,06,37,15.60
2008,06,30,06,38,15.60
2008,06,30,06,39,15.60
2008,06,30,06,40,15.60
2008,06,30,06,41,15.60
2008,06,30,06,42,15.60
2008,06,30,06,43,15.60
2008,06,30,06,44,15.60
2008,06,30,06,45,15.60
2008,06,30,06,46,15.60
2008,06,30,06,47,15.60
2008,06,30,06,48,15.60
2008,06,30,06,49,15.60
2008,06,30,06,50,15.60
2008,06,30,06,51,15.60
2008,06,30,06,52,15.60
2008,06,30,06,53,15.60
2008,06,30,06,54,15.50
2008,06,30,06,55,15.60
2008,06,30,06,56,15.60
2008,06,30,06,57,15.60
2008,06,30,06,58,15.60
2008,06,30,06,59,15.60
2008,06,30,07,00,15.60
2008,06,30,07,01,15.60
2008,06,30,07,02,15.60
2008,06,30,07,03,15.60
2008,06,30,07,04,15.70
2008,06,30,07,05,15.70
2008,06,30,07,06,15.70
2008,06,30,07,07,15.70
2008,06,30,07,08,15.80
2008,06,30,07,09,15.80
2008,06,30,07,10,15.80
2008,06,30,07,11,15.90
2008,06,30,07,12,15.90
2008,06,30,07,13,16.00
2008,06,30,07,14,16.00
2008,06,30,07,15,16.00
2008,06,30,07,16,16.10
2008,06,30,07,17,16.10
2008,06,30,07,18,16.10
2008,06,30,07,19,16.20
2008,06,30,07,20,16.20
2008,06,30,07,21,16.20
2008,06,30,07,22,16.30
2008,06,30,07,23,16.30
2008,06,30,07,24,16.30
2008,06,30,07,25,16.30
2008,06,30,07,26,16.30
2008,06,30,07,27,16.40
2008,06,30,07,28,16.40
2008,06,30,07,29,16.50
2008,06,30,07,30,16.60
2008,06,30,07,31,16.60
2008,06,30,07,32,16.70
2008,06,30,07,33,16.70
2008,06,30,07,34,16.80
2008,06,30,07,35,16.80
2008,06,30,07,36,16.90
2008,06,30,07,37,16.90
2008,06,30,07,38,16.90
2008,06,30,07,39,16.90
2008,06,30,07,40,16.90
2008,06,30,07,41,16.90
2008,06,30,07,42,16.90
2008,06,30,07,43,17.00
2008,06,30,07,44,17.00
2008,06,30,07,45,17.00
2008,06,30,07,46,17.10
2008,06,30,07,47,17.10
2008,06,30,07,48,17.10
2008,06,30,07,49,17.10
2008,06,30,07,50,17.10
2008,06,30,07,51,17.10
2008,06,30,07,52,17.10
2008,06,30,07,53,17.10
2008,06,30,07,54,17.10
2008,06,30,07,55,17.10
2008,06,30,07,56,17.10
2008,06,30,07,57,17.20
2008,06,30,07,58,17.20
2008,06,30,07,59,17.20
2008,06,30,08,00,17.20
2008,06,30,08,01,17.10
2008,06,30,08,02,17.10
2008,06,30,08,03,17.10
2008,06,30,08,04,17.10
2008,06,30,08,05,17.20
2008,06,30,08,06,17.20
2008,06,30,08,07,17.20
2008,06,30,08,08,17.20
2008,06,30,08,09,17.10
2008,06,30,08,10,17.10
2008,06,30,08,11,17.10
2008,06,30,08,12,17.10
2008,06,30,08,13,17.10
2008,06,30,08,14,17.10
2008,06,30,08,15,17.10
2008,06,30,08,16,17.10
2008,06,30,08,17,17.10
2008,06,30,08,18,17.20
2008,06,30,08,19,17.20
2008,06,30,08,20,17.20
2008,06,30,08,21,17.30
2008,06,30,08,22,17.30
2008,06,30,08,23,17.20
2008,06,30,08,24,17.20
2008,06,30,08,25,17.20
2008,06,30,08,26,17.20
2008,06,30,08,27,17.20
2008,06,30,08,28,17.20
2008,06,30,08,29,17.20
2008,06,30,08,30,17.30
2008,06,30,08,31,17.30
2008,06,30,08,32,17.40
2008,06,30,08,33,17.40
2008,06,30,08,34,17.40
2008,06,30,08,35,17.40
2008,06,30,08,36,17.40
2008,06,30,08,37,17.40
2008,06,30,08,38,17.40
2008,06,30,08,39,17.50
2008,06,30,08,40,17.50
2008,06,30,08,41,17.50
2008,06,30,08,42,17.60
2008,06,30,08,43,17.70
2008,06,30,08,44,17.70
2008,06,30,08,45,17.70
2008,06,30,08,46,17.70
2008,06,30,08,47,17.80
2008,06,30,08,48,17.90
2008,06,30,08,49,18.00
2008,06,30,08,50,18.00
2008,06,30,08,51,18.10
2008,06,30,08,52,18.10
2008,06,30,08,53,18.10
2008,06,30,08,54,18.20
2008,06,30,08,55,18.30
2008,06,30,08,56,18.30
2008,06,30,08,57,18.30
2008,06,30,08,58,18.30
2008,06,30,08,59,18.30
2008,06,30,09,00,18.30
2008,06,30,09,01,18.30
2008,06,30,09,02,18.30
2008,06,30,09,03,18.40
2008,06,30,09,04,18.50
2008,06,30,09,05,18.50
2008,06,30,09,06,18.60
2008,06,30,09,07,18.70
2008,06,30,09,08,18.80
2008,06,30,09,09,18.90
2008,06,30,09,10,19.00
2008,06,30,09,11,19.10
2008,06,30,09,12,19.20
2008,06,30,09,13,19.30
2008,06,30,09,14,19.40
2008,06,30,09,15,19.50
2008,06,30,09,16,19.60
2008,06,30,09,17,19.70
2008,06,30,09,18,19.80
2008,06,30,09,19,19.80
2008,06,30,09,20,19.80
2008,06,30,09,21,19.90
2008,06,30,09,22,19.90
2008,06,30,09,23,20.00
2008,06,30,09,24,20.10
2008,06,30,09,25,20.10
2008,06,30,09,26,20.20
2008,06,30,09,27,20.20
2008,06,30,09,28,20.20
2008,06,30,09,29,20.20
2008,06,30,09,30,20.20
2008,06,30,09,31,20.30
2008,06,30,09,32,20.40
2008,06,30,09,33,20.40
2008,06,30,09,34,20.40
2008,06,30,09,35,20.50
2008,06,30,09,36,20.50
2008,06,30,09,37,20.60
2008,06,30,09,38,20.60
2008,06,30,09,39,20.70
2008,06,30,09,40,20.80
2008,06,30,09,41,20.80
2008,06,30,09,42,20.90
2008,06,30,09,43,21.00
2008,06,30,09,44,21.00
2008,06,30,09,45,20.90
2008,06,30,09,46,20.80
2008,06,30,09,47,20.80
2008,06,30,09,48,20.80
2008,06,30,09,49,20.80
2008,06,30,09,50,20.80
2008,06,30,09,51,20.80
2008,06,30,09,52,20.80
2008,06,30,09,53,20.80
2008,06,30,09,54,20.80
2008,06,30,09,55,20.70
2008,06,30,09,56,20.70
2008,06,30,09,57,20.60
2008,06,30,09,58,20.60
2008,06,30,09,59,20.60
2008,06,30,10,00,20.60
2008,06,30,10,01,20.60
2008,06,30,10,02,20.70
2008,06,30,10,03,20.70
2008,06,30,10,04,20.70
2008,06,30,10,05,20.60
2008,06,30,10,06,20.40
2008,06,30,10,07,20.30
2008,06,30,10,08,20.10
2008,06,30,10,09,20.00
2008,06,30,10,10,19.90
2008,06,30,10,11,19.90
2008,06,30,10,12,19.90
2008,06,30,10,13,19.90
2008,06,30,10,14,19.90
2008,06,30,10,15,19.90
2008,06,30,10,16,19.90
2008,06,30,10,17,19.90
2008,06,30,10,18,19.90
2008,06,30,10,19,20.00
2008,06,30,10,20,20.10
2008,06,30,10,21,20.10
2008,06,30,10,22,20.20
2008,06,30,10,23,20.30
2008,06,30,10,24,20.40
2008,06,30,10,25,20.50
2008,06,30,10,26,20.60
2008,06,30,10,27,20.60
2008,06,30,10,28,20.70
2008,06,30,10,29,20.80
2008,06,30,10,30,20.80
2008,06,30,10,31,20.90
2008,06,30,10,32,21.00
2008,06,30,10,33,21.10
2008,06,30,10,34,21.20
2008,06,30,10,35,21.20
2008,06,30,10,36,21.30
2008,06,30,10,37,21.30
2008,06,30,10,38,21.40
2008,06,30,10,39,21.40
2008,06,30,10,40,21.40
2008,06,30,10,41,21.40
2008,06,30,10,42,21.40
2008,06,30,10,43,21.40
2008,06,30,10,44,21.50
2008,06,30,10,45,21.60
2008,06,30,10,46,21.70
2008,06,30,10,47,21.80
2008,06,30,10,48,21.90
2008,06,30,10,49,21.90
2008,06,30,10,50,21.90
2008,06,30,10,51,21.90
2008,06,30,10,52,21.90
2008,06,30,10,53,21.90
2008,06,30,10,54,21.90
2008,06,30,10,55,22.00
2008,06,30,10,56,22.20
2008,06,30,10,57,22.30
2008,06,30,10,58,22.40
2008,06,30,10,59,22.60
2008,06,30,11,00,22.90
2008,06,30,11,01,23.00
2008,06,30,11,02,23.10
2008,06,30,11,03,23.20
2008,06,30,11,04,23.20
2008,06,30,11,05,23.30
2008,06,30,11,06,23.40
2008,06,30,11,07,23.50
2008,06,30,11,08,23.60
2008,06,30,11,09,23.70
2008,06,30,11,10,23.80
2008,06,30,11,11,23.90
2008,06,30,11,12,24.00
2008,06,30,11,13,24.10
2008,06,30,11,14,24.20
2008,06,30,11,15,24.30
2008,06,30,11,16,24.40
2008,06,30,11,17,24.40
2008,06,30,11,18,24.50
2008,06,30,11,19,24.70
2008,06,30,11,20,24.80
2008,06,30,11,21,24.80
2008,06,30,11,22,24.90
2008,06,30,11,23,25.10
2008,06,30,11,24,25.10
2008,06,30,11,25,25.30
2008,06,30,11,26,25.30
2008,06,30,11,27,25.40
2008,06,30,11,28,25.50
2008,06,30,11,29,25.60
2008,06,30,11,30,25.60
2008,06,30,11,31,25.70
2008,06,30,11,32,25.60
2008,06,30,11,33,25.60
2008,06,30,11,34,25.60
2008,06,30,11,35,25.60
2008,06,30,11,36,25.60
2008,06,30,11,37,25.60
2008,06,30,11,38,25.60
2008,06,30,11,39,25.70
2008,06,30,11,40,25.70
2008,06,30,11,41,25.80
2008,06,30,11,42,25.90
2008,06,30,11,43,25.90
2008,06,30,11,44,26.00
2008,06,30,11,45,26.10
2008,06,30,11,46,26.30
2008,06,30,11,47,26.40
2008,06,30,11,48,26.40
2008,06,30,11,49,26.40
2008,06,30,11,50,26.50
2008,06,30,11,51,26.60
2008,06,30,11,52,26.70
2008,06,30,11,53,26.80
2008,06,30,11,54,26.90
2008,06,30,11,55,27.00
2008,06,30,11,56,27.10
2008,06,30,11,57,27.20
2008,06,30,11,58,27.20
2008,06,30,11,59,27.30
2008,06,30,12,00,27.30
2008,06,30,12,01,27.30
2008,06,30,12,02,27.20
2008,06,30,12,03,27.20
2008,06,30,12,04,27.20
2008,06,30,12,05,27.20
2008,06,30,12,06,27.30
2008,06,30,12,07,27.30
2008,06,30,12,08,27.50
2008,06,30,12,09,27.60
2008,06,30,12,10,27.60
2008,06,30,12,11,27.70
2008,06,30,12,12,27.90
2008,06,30,12,13,27.90
2008,06,30,12,14,28.10
2008,06,30,12,15,28.20
2008,06,30,12,16,28.30
2008,06,30,12,17,28.30
2008,06,30,12,18,28.30
2008,06,30,12,19,28.40
2008,06,30,12,20,28.50
2008,06,30,12,21,28.60
2008,06,30,12,22,28.70
2008,06,30,12,23,28.70
2008,06,30,12,24,28.70
2008,06,30,12,25,28.60
2008,06,30,12,26,28.60
2008,06,30,12,27,28.60
2008,06,30,12,28,28.50
2008,06,30,12,29,28.40
2008,06,30,12,30,28.40
2008,06,30,12,31,28.30
2008,06,30,12,32,28.30
2008,06,30,12,33,28.30
2008,06,30,12,34,28.30
2008,06,30,12,35,28.30
2008,06,30,12,36,28.30
2008,06,30,12,37,28.30
2008,06,30,12,38,28.40
2008,06,30,12,39,28.40
2008,06,30,12,40,28.50
2008,06,30,12,41,28.50
2008,06,30,12,42,28.60
2008,06,30,12,43,28.70
2008,06,30,12,44,28.70
2008,06,30,12,45,28.90
2008,06,30,12,46,28.90
2008,06,30,12,47,29.00
2008,06,30,12,48,29.00
2008,06,30,12,49,29.00
2008,06,30,12,50,29.00
2008,06,30,12,51,29.00
2008,06,30,12,52,29.00
2008,06,30,12,53,28.90
2008,06,30,12,54,28.90
2008,06,30,12,55,28.90
2008,06,30,12,56,28.80
2008,06,30,12,57,28.80
2008,06,30,12,58,28.80
2008,06,30,12,59,28.70
2008,06,30,13,00,28.60
2008,06,30,13,01,28.50
2008,06,30,13,02,28.40
2008,06,30,13,03,28.20
2008,06,30,13,04,28.20
2008,06,30,13,05,28.10
2008,06,30,13,06,28.00
2008,06,30,13,07,27.90
2008,06,30,13,08,27.80
2008,06,30,13,09,27.70
2008,06,30,13,10,27.70
2008,06,30,13,11,27.60
2008,06,30,13,12,27.60
2008,06,30,13,13,27.60
2008,06,30,13,14,27.70
2008,06,30,13,15,27.70
2008,06,30,13,16,27.80
2008,06,30,13,17,27.80
2008,06,30,13,18,27.80
2008,06,30,13,19,27.90
2008,06,30,13,20,27.90
2008,06,30,13,21,27.90
2008,06,30,13,22,27.90
2008,06,30,13,23,27.90
2008,06,30,13,24,27.90
2008,06,30,13,25,28.00
2008,06,30,13,26,28.10
2008,06,30,13,27,28.20
2008,06,30,13,28,28.20
2008,06,30,13,29,28.30
2008,06,30,13,30,28.30
2008,06,30,13,31,28.40
2008,06,30,13,32,28.40
2008,06,30,13,33,28.30
2008,06,30,13,34,28.20
2008,06,30,13,35,28.20
2008,06,30,13,36,28.20
2008,06,30,13,37,28.10
2008,06,30,13,38,28.10
2008,06,30,13,39,28.10
2008,06,30,13,40,28.10
2008,06,30,13,41,28.20
2008,06,30,13,42,28.20
2008,06,30,13,43,28.20
2008,06,30,13,44,28.20
2008,06,30,13,45,28.30
2008,06,30,13,46,28.30
2008,06,30,13,47,28.30
2008,06,30,13,48,28.30
2008,06,30,13,49,28.30
2008,06,30,13,50,28.30
2008,06,30,13,51,28.30
2008,06,30,13,52,28.30
2008,06,30,13,53,28.30
2008,06,30,13,54,28.30
2008,06,30,13,55,28.30
2008,06,30,13,56,28.40
2008,06,30,13,57,28.40
2008,06,30,13,58,28.60
2008,06,30,13,59,28.70
2008,06,30,14,00,28.80
2008,06,30,14,01,28.90
2008,06,30,14,02,28.90
2008,06,30,14,03,28.90
2008,06,30,14,04,29.00
2008,06,30,14,05,29.00
2008,06,30,14,06,29.10
2008,06,30,14,07,29.20
2008,06,30,14,08,29.30
2008,06,30,14,09,29.30
2008,06,30,14,10,29.30
2008,06,30,14,11,29.30
2008,06,30,14,12,29.30
2008,06,30,14,13,29.20
2008,06,30,14,14,29.20
2008,06,30,14,15,29.20
2008,06,30,14,16,29.20
2008,06,30,14,17,29.20
2008,06,30,14,18,29.20
2008,06,30,14,19,29.30
2008,06,30,14,20,29.30
2008,06,30,14,21,29.30
2008,06,30,14,22,29.30
2008,06,30,14,23,29.30
2008,06,30,14,24,29.40
2008,06,30,14,25,29.50
2008,06,30,14,26,29.50
2008,06,30,14,27,29.60
2008,06,30,14,28,29.70
2008,06,30,14,29,29.80
2008,06,30,14,30,29.80
2008,06,30,14,31,29.80
2008,06,30,14,32,29.80
2008,06,30,14,33,29.70
2008,06,30,14,34,29.60
2008,06,30,14,35,29.50
2008,06,30,14,36,29.40
2008,06,30,14,37,29.30
2008,06,30,14,38,29.30
2008,06,30,14,39,29.30
2008,06,30,14,40,29.30
2008,06,30,14,41,29.40
2008,06,30,14,42,29.40
2008,06,30,14,43,29.50
2008,06,30,14,44,29.50
2008,06,30,14,45,29.60
2008,06,30,14,46,29.60
2008,06,30,14,47,29.60
2008,06,30,14,48,29.60
2008,06,30,14,49,29.70
2008,06,30,14,50,29.70
2008,06,30,14,51,29.70
2008,06,30,14,52,29.80
2008,06,30,14,53,29.90
2008,06,30,14,54,30.00
2008,06,30,14,55,30.20
2008,06,30,14,56,30.30
2008,06,30,14,57,30.20
2008,06,30,14,58,30.20
2008,06,30,14,59,30.20
2008,06,30,15,00,30.20
2008,06,30,15,01,30.40
2008,06,30,15,02,30.50
2008,06,30,15,03,30.60
2008,06,30,15,04,30.70
2008,06,30,15,05,30.70
2008,06,30,15,06,30.70
2008,06,30,15,07,30.70
2008,06,30,15,08,30.70
2008,06,30,15,09,30.80
2008,06,30,15,10,30.80
2008,06,30,15,11,30.80
2008,06,30,15,12,30.70
2008,06,30,15,13,30.60
2008,06,30,15,14,30.60
2008,06,30,15,15,30.70
2008,06,30,15,16,30.60
2008,06,30,15,17,30.30
2008,06,30,15,18,30.00
2008,06,30,15,19,29.70
2008,06,30,15,20,29.50
2008,06,30,15,21,29.30
2008,06,30,15,22,29.20
2008,06,30,15,23,29.10
2008,06,30,15,24,29.00
2008,06,30,15,25,29.00
2008,06,30,15,26,28.90
2008,06,30,15,27,28.70
2008,06,30,15,28,28.50
2008,06,30,15,29,28.30
2008,06,30,15,30,28.10
2008,06,30,15,31,28.00
2008,06,30,15,32,27.70
2008,06,30,15,33,27.60
2008,06,30,15,34,27.50
2008,06,30,15,35,27.40
2008,06,30,15,36,27.30
2008,06,30,15,37,27.20
2008,06,30,15,38,27.20
2008,06,30,15,39,27.20
2008,06,30,15,40,27.20
2008,06,30,15,41,27.20
2008,06,30,15,42,27.10
2008,06,30,15,43,27.10
2008,06,30,15,44,27.00
2008,06,30,15,45,27.00
2008,06,30,15,46,26.90
2008,06,30,15,47,26.80
2008,06,30,15,48,26.70
2008,06,30,15,49,26.70
2008,06,30,15,50,26.70
2008,06,30,15,51,26.60
2008,06,30,15,52,26.40
2008,06,30,15,53,26.20
2008,06,30,15,54,26.00
2008,06,30,15,55,25.90
2008,06,30,15,56,25.90
2008,06,30,15,57,25.80
2008,06,30,15,58,25.80
2008,06,30,15,59,25.70
2008,06,30,16,00,25.70
2008,06,30,16,01,25.70
2008,06,30,16,02,25.70
2008,06,30,16,03,25.60
2008,06,30,16,04,25.50
2008,06,30,16,05,25.40
2008,06,30,16,06,25.30
2008,06,30,16,07,25.30
2008,06,30,16,08,25.30
2008,06,30,16,09,25.30
2008,06,30,16,10,25.30
2008,06,30,16,11,25.40
2008,06,30,16,12,25.40
2008,06,30,16,13,25.40
2008,06,30,16,14,25.40
2008,06,30,16,15,25.40
2008,06,30,16,16,25.40
2008,06,30,16,17,25.50
2008,06,30,16,18,25.60
2008,06,30,16,19,25.70
2008,06,30,16,20,25.90
2008,06,30,16,21,26.00
2008,06,30,16,22,26.10
2008,06,30,16,23,26.20
2008,06,30,16,24,26.20
2008,06,30,16,25,26.30
2008,06,30,16,26,26.30
2008,06,30,16,27,26.40
2008,06,30,16,28,26.30
2008,06,30,16,29,26.30
2008,06,30,16,30,26.20
2008,06,30,16,31,26.10
2008,06,30,16,32,26.10
2008,06,30,16,33,26.10
2008,06,30,16,34,26.10
2008,06,30,16,35,26.10
2008,06,30,16,36,26.20
2008,06,30,16,37,26.30
2008,06,30,16,38,26.30
2008,06,30,16,39,26.40
2008,06,30,16,40,26.60
2008,06,30,16,41,26.60
2008,06,30,16,42,26.70
2008,06,30,16,43,26.70
2008,06,30,16,44,26.70
2008,06,30,16,45,26.70
2008,06,30,16,46,26.60
2008,06,30,16,47,26.50
2008,06,30,16,48,26.40
2008,06,30,16,49,26.40
2008,06,30,16,50,26.30
2008,06,30,16,51,26.30
2008,06,30,16,52,26.30
2008,06,30,16,53,26.20
2008,06,30,16,54,26.10
2008,06,30,16,55,26.00
2008,06,30,16,56,26.00
2008,06,30,16,57,25.90
2008,06,30,16,58,26.00
2008,06,30,16,59,26.10
2008,06,30,17,00,26.20
2008,06,30,17,01,26.20
2008,06,30,17,02,26.30
2008,06,30,17,03,26.30
2008,06,30,17,04,26.30
2008,06,30,17,05,26.40
2008,06,30,17,06,26.50
2008,06,30,17,07,26.60
2008,06,30,17,08,26.60
2008,06,30,17,09,26.70
2008,06,30,17,10,26.70
2008,06,30,17,11,26.70
2008,06,30,17,12,26.70
2008,06,30,17,13,26.80
2008,06,30,17,14,26.80
2008,06,30,17,15,26.80
2008,06,30,17,16,26.70
2008,06,30,17,17,26.70
2008,06,30,17,18,26.60
2008,06,30,17,19,26.70